Greenland, New Hampshire, United States (03840)
Lat: 43.04N, Lon: 70.83W
Wx Zone: NHZ014
Local Info
Past Weather Observations for Wednesday, August 27, 2014

NOTE: This archive is for the closest National Weather Service station to Greenland. Information may differ from the station used for current weather conditions.

Click here for Long-term Archive

Time Weather Temperature Dewpoint Humidity Pressure Winds Precip Visibility
23:58
Mostly Cloudy
72°F / 22°C 66°F / 19°C 83% 29.83 in
(1010 mb)
WNW 4.6 mph
(WNW 7 kph)
- 10SM
22:58
Mostly Cloudy
73°F / 23°C 66°F / 19°C 78% 29.8 in
(1009 mb)
NW 4.6 mph
(NW 7 kph)
- 10SM
21:58
Mostly Cloudy
77°F / 25°C 68°F / 20°C 74% 29.8 in
(1009 mb)
WNW 8.1 mph
(WNW 13 kph)
- 10SM
20:58
Mostly Cloudy
79°F / 26°C 68°F / 20°C 70% 29.83 in
(1010 mb)
SSW 5.8 mph
(SSW 9 kph)
- 10SM
19:58
Mostly Cloudy
79°F / 26°C 68°F / 20°C 70% 29.83 in
(1010 mb)
SSW 3.5 mph
(SSW 6 kph)
- 10SM
18:58
Mostly Cloudy
81°F / 27°C 68°F / 20°C 66% 29.83 in
(1010 mb)
SSE 4.6 mph
(SSE 7 kph)
- 10SM
17:58
Mostly Cloudy
84°F / 29°C 70°F / 21°C 62% 29.83 in
(1010 mb)
Variable 2.3 mph
(Variable 4 kph)
- 10SM
16:58
Mostly Cloudy
86°F / 30°C 68°F / 20°C 55% 29.83 in
(1010 mb)
W 8.1 mph
(W 13 kph)
- 10SM
15:58
Partly Cloudy
88°F / 31°C 66°F / 19°C 49% 29.83 in
(1010 mb)
SSW 11.5 mph
(SSW 19 kph)
- 10SM
14:58
Partly Cloudy
88°F / 31°C 66°F / 19°C 49% 29.83 in
(1010 mb)
SSW 11.5 mph
(SSW 19 kph)
- 10SM
13:58
Partly Cloudy
90°F / 32°C 66°F / 19°C 46% 29.83 in
(1010 mb)
W 9.2 mph
(W 15 kph)
- 10SM
12:58
Partly Cloudy
88°F / 31°C 70°F / 21°C 55% 29.86 in
(1011 mb)
SSW 8.1 mph
(SSW 13 kph)
- 10SM
11:58
Partly Cloudy
86°F / 30°C 68°F / 20°C 55% 29.89 in
(1012 mb)
SSW 10.4 mph
(SSW 17 kph)
- 10SM
10:58
Mostly Cloudy
84°F / 29°C 68°F / 20°C 58% 29.92 in
(1013 mb)
SSW 10.4 mph
(SSW 17 kph)
- 10SM
09:58
Mostly Cloudy
82°F / 28°C 66°F / 19°C 58% 29.92 in
(1013 mb)
SSW 8.1 mph
(SSW 13 kph)
- 10SM
08:58
Mostly Cloudy
79°F / 26°C 66°F / 19°C 65% 29.95 in
(1014 mb)
SSW 8.1 mph
(SSW 13 kph)
- 10SM
07:58
Mostly Cloudy
73°F / 23°C 64°F / 18°C 74% 29.95 in
(1014 mb)
SSW 6.9 mph
(SSW 11 kph)
- 10SM
06:58
Mostly Cloudy
72°F / 22°C 64°F / 18°C 78% 29.95 in
(1014 mb)
SSW 5.8 mph
(SSW 9 kph)
- 10SM
05:58
Mostly Cloudy
68°F / 20°C 63°F / 17°C 83% 29.95 in
(1014 mb)
SSW 4.6 mph
(SSW 7 kph)
- 10SM
04:58
Mostly Cloudy
68°F / 20°C 63°F / 17°C 83% 29.95 in
(1014 mb)
SSW 5.8 mph
(SSW 9 kph)
- 10SM
03:58
Mostly Cloudy
68°F / 20°C 63°F / 17°C 83% 29.95 in
(1014 mb)
SSW 5.8 mph
(SSW 9 kph)
- 10SM
02:58
Mostly Cloudy
68°F / 20°C 64°F / 18°C 88% 29.95 in
(1014 mb)
SW 9.2 mph
(SW 15 kph)
- 10SM
01:58
Mostly Cloudy
70°F / 21°C 64°F / 18°C 83% 29.98 in
(1015 mb)
SSW 6.9 mph
(SSW 11 kph)
- 10SM
00:58
Partly Cloudy
70°F / 21°C 64°F / 18°C 83% 29.98 in
(1015 mb)
SW 8.1 mph
(SW 13 kph)
- 10SM
Time Weather Temperature Dewpoint Humidity Pressure Winds Precip Visibility


Weather for websites

WeatherForYou.com, LLC is not responsible for any damages or problems caused by this service. Current weather conditions are obtained from the closest station including government and personal stations which may have varying degrees of accuracy. Weather forecasts are derived from the NOAA NDFD. Like all things, this site belongs to Jesus Christ... He just trusts me to maintain it. If you have any questions or comments email webmaster@weatherforyou.com

Copyright © 2014, WeatherForYou.com LLC. All rights reserved.